Time,TemperatureF,DewpointF,PressureIn,WindDirection,WindDirectionDegrees,WindSpeedMPH,WindSpeedGustMPH,Humidity,HourlyPrecipIn,Conditions,Clouds,dailyrainin,SoftwareType,DateUTC
2013-02-01 00:27:00,42.2,40.0,30.19,WNW,293,2.0,4.0,92,0.00,,,0.00,Wunderground v.1.15,2013-02-01 08:27:00,
2013-02-01 00:57:00,41.6,40.0,30.19,WNW,293,0.0,1.0,94,0.00,,,0.00,Wunderground v.1.15,2013-02-01 08:57:00,
2013-02-01 01:27:00,41.3,40.0,30.19,WNW,293,2.0,4.0,95,0.00,,,0.00,Wunderground v.1.15,2013-02-01 09:27:00,
2013-02-01 01:57:00,42.4,41.3,30.19,WNW,293,1.0,1.0,96,0.00,,,0.00,Wunderground v.1.15,2013-02-01 09:57:00,
2013-02-01 02:27:00,41.5,40.2,30.19,WNW,293,0.0,0.0,95,0.00,,,0.00,Wunderground v.1.15,2013-02-01 10:27:00,
2013-02-01 02:57:00,40.3,39.0,30.19,WNW,293,1.0,1.0,95,0.00,,,0.00,Wunderground v.1.15,2013-02-01 10:57:00,
2013-02-01 03:27:00,41.7,40.6,30.19,North,349,1.0,1.0,96,0.00,,,0.00,Wunderground v.1.15,2013-02-01 11:27:00,
2013-02-01 03:57:00,40.8,39.2,30.19,North,349,1.0,1.0,94,0.00,,,0.00,Wunderground v.1.15,2013-02-01 11:57:00,
2013-02-01 04:27:00,41.1,39.5,30.19,NE,36,0.0,0.0,94,0.00,,,0.00,Wunderground v.1.15,2013-02-01 12:27:00,
2013-02-01 04:57:00,43.1,40.7,30.19,NE,36,1.0,1.0,91,0.00,,,0.00,Wunderground v.1.15,2013-02-01 12:57:00,
2013-02-01 05:27:00,42.3,40.1,30.19,NE,36,0.0,0.0,92,0.00,,,0.00,Wunderground v.1.15,2013-02-01 13:27:00,
2013-02-01 05:57:00,45.0,41.7,30.19,NE,41,2.0,2.0,88,0.00,,,0.00,Wunderground v.1.15,2013-02-01 13:57:00,
2013-02-01 06:27:00,43.0,40.0,30.19,NE,41,0.0,0.0,89,0.00,,,0.00,Wunderground v.1.15,2013-02-01 14:27:00,
2013-02-01 06:57:00,42.6,40.4,30.19,NE,41,0.0,0.0,92,0.00,,,0.00,Wunderground v.1.15,2013-02-01 14:57:00,
2013-02-01 07:27:00,43.8,40.8,30.20,NE,55,1.0,1.0,89,0.00,,,0.00,Wunderground v.1.15,2013-02-01 15:27:00,
2013-02-01 07:57:00,44.5,41.2,30.20,ESE,106,2.0,2.0,88,0.00,,,0.00,Wunderground v.1.15,2013-02-01 15:57:00,
2013-02-01 08:27:00,45.5,41.9,30.21,SE,124,4.0,5.0,87,0.00,,,0.00,Wunderground v.1.15,2013-02-01 16:27:00,
2013-02-01 08:57:00,46.9,42.3,30.20,East,99,5.0,7.0,84,0.00,,,0.00,Wunderground v.1.15,2013-02-01 16:57:00,
2013-02-01 09:27:00,48.4,42.8,30.20,ESE,117,6.0,6.0,81,0.00,,,0.00,Wunderground v.1.15,2013-02-01 17:27:00,
2013-02-01 09:57:00,50.5,42.9,30.21,ESE,110,5.0,5.0,75,0.00,,,0.00,Wunderground v.1.15,2013-02-01 17:57:00,
2013-02-01 10:27:00,51.6,42.9,30.21,ENE,78,4.0,6.0,72,0.00,,,0.00,Wunderground v.1.15,2013-02-01 18:27:00,
2013-02-01 10:57:00,52.7,42.4,30.21,SE,124,5.0,8.0,68,0.00,,,0.00,Wunderground v.1.15,2013-02-01 18:57:00,
2013-02-01 11:27:00,53.7,42.6,30.20,ESE,109,6.0,6.0,66,0.00,,,0.00,Wunderground v.1.15,2013-02-01 19:27:00,
2013-02-01 11:57:00,55.2,42.8,30.18,ESE,121,5.0,5.0,63,0.00,,,0.00,Wunderground v.1.15,2013-02-01 19:57:00,
2013-02-01 12:27:00,56.3,43.0,30.17,SE,130,5.0,5.0,61,0.00,,,0.00,Wunderground v.1.15,2013-02-01 20:27:00,
2013-02-01 12:57:00,57.1,43.8,30.16,SSE,165,3.0,4.0,61,0.00,,,0.00,Wunderground v.1.15,2013-02-01 20:57:00,
2013-02-01 13:27:00,57.8,44.0,30.15,SE,126,5.0,5.0,60,0.00,,,0.00,Wunderground v.1.15,2013-02-01 21:27:00,
2013-02-01 13:57:00,59.6,43.9,30.14,South,188,4.0,4.0,56,0.00,,,0.00,Wunderground v.1.15,2013-02-01 21:57:00,
2013-02-01 14:27:00,60.6,43.9,30.14,SE,125,4.0,6.0,54,0.00,,,0.00,Wunderground v.1.15,2013-02-01 22:27:00,
2013-02-01 14:57:00,61.4,43.6,30.13,South,184,4.0,4.0,52,0.00,,,0.00,Wunderground v.1.15,2013-02-01 22:57:00,
2013-02-01 15:27:00,61.6,43.3,30.13,SSE,157,4.0,4.0,51,0.00,,,0.00,Wunderground v.1.15,2013-02-01 23:27:00,
2013-02-01 15:57:00,61.4,43.6,30.13,SSE,151,3.0,3.0,52,0.00,,,0.00,Wunderground v.1.15,2013-02-01 23:57:00,
2013-02-01 16:27:00,60.5,43.8,30.12,SE,124,2.0,2.0,54,0.00,,,0.00,Wunderground v.1.15,2013-02-02 00:27:00,
2013-02-01 16:57:00,59.2,43.5,30.13,SSW,205,1.0,1.0,56,0.00,,,0.00,Wunderground v.1.15,2013-02-02 00:57:00,
2013-02-01 17:27:00,57.5,42.8,30.14,SSW,205,0.0,1.0,58,0.00,,,0.00,Wunderground v.1.15,2013-02-02 01:27:00,
2013-02-01 17:57:00,54.1,42.6,30.15,ESE,107,0.0,0.0,65,0.00,,,0.00,Wunderground v.1.15,2013-02-02 01:57:00,
2013-02-01 18:27:00,51.7,42.2,30.16,WNW,295,3.0,3.0,70,0.00,,,0.00,Wunderground v.1.15,2013-02-02 02:27:00,
2013-02-01 18:57:00,49.3,42.4,30.17,WNW,296,5.0,5.0,77,0.00,,,0.00,Wunderground v.1.15,2013-02-02 02:57:00,
2013-02-01 19:27:00,49.1,41.9,30.18,WNW,294,4.0,4.0,76,0.00,,,0.00,Wunderground v.1.15,2013-02-02 03:27:00,
2013-02-01 19:57:00,48.8,41.9,30.18,WNW,288,4.0,4.0,77,0.00,,,0.00,Wunderground v.1.15,2013-02-02 03:57:00,
2013-02-01 20:27:00,48.7,41.5,30.17,WNW,301,2.0,2.0,76,0.00,,,0.00,Wunderground v.1.15,2013-02-02 04:27:00,
2013-02-01 20:57:00,49.4,41.8,30.19,WNW,301,0.0,0.0,75,0.00,,,0.00,Wunderground v.1.15,2013-02-02 04:57:00,
2013-02-01 21:27:00,48.3,41.4,30.19,WNW,302,0.0,0.0,77,0.00,,,0.00,Wunderground v.1.15,2013-02-02 05:27:00,
2013-02-01 21:57:00,49.0,41.8,30.19,WNW,302,0.0,0.0,76,0.00,,,0.00,Wunderground v.1.15,2013-02-02 05:57:00,
2013-02-01 22:27:00,48.6,41.4,30.20,WNW,301,0.0,0.0,76,0.00,,,0.00,Wunderground v.1.15,2013-02-02 06:27:00,
2013-02-01 22:57:00,48.6,42.7,30.20,WNW,301,0.0,0.0,80,0.00,,,0.00,Wunderground v.1.15,2013-02-02 06:57:00,
2013-02-01 23:27:00,49.3,43.1,30.21,WNW,301,0.0,0.0,79,0.00,,,0.00,Wunderground v.1.15,2013-02-02 07:27:00,
2013-02-01 23:57:00,48.1,42.9,30.21,WNW,301,1.0,1.0,82,0.00,,,0.00,Wunderground v.1.15,2013-02-02 07:57:00,